Temp
-8 -7 -6 -6 -6 -7 -7 -8 -8 -8 -7 -7 -7 -8 -9 -9 -8 -8 -8 -8 -9 -9 -9 -9 -10 -10 -10 -10 -10 -9 -9 -9 -9 -9 -9 -9 -9 -9 -9 -10 -10 -10 -10 -10 -10 -10 -10 -10 -11
-7 -7 -6 -6 -6 -6 -7 -7 -8 -8 -8 -7 -7 -7 -7 -7 -7 -8 -8 -8 -9 -9 -9 -10 -10 -10 -10 -10 -9 -10 -10 -10 -10 -10 -10 -10 -11 -11 -10 -10 -11 -10 -10 -10 -10 -10 -10 -10 -10
-8 -7 -6 -6 -6 -7 -7 -7 -8 -8 -8 -8 -8 -8 -8 -7 -8 -8 -8 -8 -8 -9 -9 -10 -10 -10 -10 -10 -10 -10 -10 -10 -10 -10 -10 -10 -11 -11 -11 -11 -11 -11 -11 -11 -11 -11 -11 -10 -10
-6 -6 -5 -5 -5 -6 -6 -7 -8 -8 -7 -7 -8 -8 -8 -7 -7 -7 -7 -8 -8 -9 -10 -10 -10 -10 -10 -10 -10 -10 -10 -10 -10 -10 -11 -11 -11 -11 -11 -11 -12 -12 -12 -12 -11 -11 -11 -11 -11
-6 -5 -4 -5 -5 -5 -5 -6 -7 -7 -7 -8 -8 -8 -7 -7 -7 -7 -7 -8 -8 -9 -9 -10 -10 -10 -10 -10 -10 -10 -10 -10 -11 -11 -11 -11 -11 -11 -11 -11 -12 -12 -12 -12 -12 -12 -12 -12 -12
-5 -4 -5 -5 -5 -4 -5 -5 -7 -8 -8 -8 -8 -7 -7 -7 -7 -7 -7 -8 -8 -9 -10 -10 -10 -10 -10 -10 -10 -11 -11 -11 -11 -11 -11 -11 -11 -11 -11 -12 -12 -12 -12 -12 -12 -13 -13 -13 -13
-5 -5 -5 -5 -5 -4 -5 -6 -7 -7 -7 -8 -8 -7 -7 -7 -7 -7 -8 -8 -9 -9 -9 -10 -10 -10 -10 -10 -10 -11 -11 -11 -12 -12 -12 -12 -12 -12 -12 -12 -12 -12 -13 -13 -14 -14 -15 -15 -15
-5 -6 -6 -6 -4 -4 -5 -6 -7 -7 -7 -8 -8 -7 -7 -7 -7 -8 -8 -9 -9 -9 -9 -10 -10 -10 -10 -10 -11 -11 -11 -12 -12 -12 -12 -12 -12 -13 -13 -13 -13 -14 -14 -15 -15 -15 -15 -16 -16
-6 -6 -6 -4 -4 -4 -5 -6 -7 -7 -7 -8 -8 -8 -8 -8 -8 -8 -8 -9 -9 -9 -9 -9 -10 -10 -11 -11 -12 -12 -11 -12 -12 -12 -12 -12 -13 -13 -14 -14 -15 -16 -16 -16 -16 -16 -16 -16 -16
-6 -7 -6 -5 -4 -5 -5 -6 -6 -6 -6 -7 -7 -7 -8 -8 -8 -9 -9 -9 -9 -10 -9 -10 -10 -11 -11 -12 -12 -12 -12 -12 -12 -12 -12 -13 -13 -14 -14 -15 -15 -16 -16 -16 -17 -17 -17 -17 -17
-7 -7 -6 -6 -5 -6 -6 -6 -6 -7 -6 -6 -7 -7 -8 -8 -8 -9 -9 -10 -10 -10 -10 -10 -11 -11 -11 -12 -12 -12 -12 -12 -12 -12 -13 -13 -13 -13 -14 -15 -16 -16 -17 -18 -18 -17 -17 -17 -17
-7 -6 -6 -6 -5 -6 -7 -7 -7 -7 -6 -6 -6 -7 -8 -8 -8 -9 -10 -10 -10 -10 -10 -11 -11 -11 -11 -12 -12 -12 -12 -12 -12 -13 -13 -13 -14 -14 -15 -16 -16 -17 -18 -18 -17 -17 -17 -18 -19
-6 -6 -6 -6 -5 -6 -7 -7 -7 -7 -6 -7 -7 -7 -7 -8 -8 -9 -10 -10 -10 -10 -10 -11 -11 -11 -12 -12 -12 -12 -13 -13 -13 -13 -13 -13 -14 -15 -16 -17 -17 -17 -18 -18 -17 -17 -18 -19 -20
-6 -6 -5 -5 -6 -6 -6 -7 -8 -8 -7 -7 -7 -7 -8 -9 -9 -10 -10 -10 -10 -11 -11 -11 -11 -12 -12 -12 -12 -13 -13 -13 -13 -13 -13 -13 -14 -16 -17 -17 -17 -18 -18 -18 -18 -18 -19 -19 -19
-6 -5 -5 -5 -5 -5 -6 -6 -7 -8 -8 -8 -8 -9 -9 -9 -10 -10 -10 -11 -11 -11 -11 -11 -12 -12 -12 -13 -13 -13 -13 -13 -13 -14 -14 -14 -15 -16 -17 -17 -18 -19 -19 -18 -19 -19 -19 -19 -19
-6 -6 -5 -5 -5 -5 -5 -5 -6 -8 -8 -9 -9 -9 -10 -10 -10 -11 -11 -11 -11 -11 -11 -12 -12 -12 -13 -13 -13 -13 -13 -13 -14 -14 -14 -15 -15 -17 -17 -18 -18 -19 -19 -19 -19 -19 -19 -19 -19
-6 -6 -6 -6 -5 -5 -5 -5 -6 -7 -8 -9 -9 -10 -10 -11 -11 -11 -11 -11 -11 -11 -12 -12 -13 -13 -13 -13 -13 -14 -14 -14 -14 -14 -14 -15 -16 -17 -18 -19 -19 -20 -19 -19 -19 -19 -19 -19 -19
-6 -6 -6 -6 -5 -5 -5 -5 -6 -7 -8 -9 -10 -11 -11 -11 -11 -11 -11 -11 -11 -11 -12 -13 -13 -14 -14 -14 -14 -14 -14 -14 -14 -14 -15 -16 -17 -18 -18 -19 -20 -20 -20 -20 -19 -19 -19 -19 -19
-7 -7 -6 -6 -5 -6 -6 -5 -6 -7 -8 -9 -10 -11 -12 -11 -11 -11 -11 -11 -11 -12 -13 -13 -14 -14 -14 -14 -14 -14 -14 -14 -14 -15 -15 -16 -17 -18 -19 -19 -20 -21 -20 -20 -20 -20 -20 -20 -19
-7 -7 -6 -6 -6 -6 -6 -6 -7 -8 -9 -10 -10 -11 -11 -11 -11 -11 -11 -11 -12 -13 -13 -14 -14 -15 -14 -14 -14 -14 -14 -15 -15 -15 -16 -17 -18 -19 -19 -20 -20 -21 -21 -21 -20 -20 -20 -20 -20
-7 -7 -7 -7 -7 -7 -7 -6 -7 -8 -9 -10 -10 -10 -11 -11 -11 -11 -12 -12 -13 -13 -14 -14 -15 -14 -14 -14 -14 -15 -15 -15 -15 -16 -17 -18 -18 -19 -19 -20 -21 -21 -21 -21 -21 -21 -20 -20 -20
-7 -7 -7 -8 -8 -8 -8 -7 -8 -8 -9 -10 -10 -10 -11 -11 -12 -12 -12 -13 -13 -14 -14 -15 -15 -14 -14 -14 -15 -15 -15 -15 -16 -17 -18 -18 -19 -19 -20 -21 -22 -22 -22 -21 -21 -21 -21 -21 -20
-7 -7 -8 -8 -8 -8 -8 -7 -8 -9 -10 -10 -10 -10 -11 -12 -12 -13 -13 -13 -13 -14 -15 -15 -15 -14 -15 -15 -15 -16 -16 -16 -17 -18 -18 -19 -20 -20 -21 -22 -22 -22 -22 -22 -22 -22 -21 -21 -21
-8 -8 -8 -8 -8 -8 -9 -8 -8 -9 -10 -10 -10 -11 -11 -12 -13 -13 -13 -13 -14 -15 -15 -15 -15 -15 -15 -15 -16 -16 -16 -17 -18 -18 -19 -20 -20 -20 -21 -22 -22 -22 -22 -22 -22 -22 -22 -22 -21
-9 -9 -9 -9 -8 -8 -9 -9 -10 -10 -10 -11 -11 -11 -12 -13 -13 -14 -13 -13 -14 -15 -15 -15 -15 -15 -15 -16 -16 -16 -17 -17 -18 -19 -20 -20 -20 -21 -22 -22 -23 -23 -23 -23 -23 -23 -23 -22 -22
-9 -9 -9 -9 -9 -9 -10 -9 -10 -10 -11 -11 -11 -12 -12 -13 -13 -13 -13 -14 -15 -15 -15 -15 -15 -15 -16 -16 -17 -17 -17 -18 -19 -19 -20 -20 -21 -21 -22 -23 -23 -24 -24 -24 -24 -23 -23 -23 -23
-9 -9 -10 -10 -10 -9 -10 -10 -11 -11 -11 -11 -12 -12 -13 -13 -13 -13 -13 -14 -15 -15 -15 -15 -15 -16 -16 -17 -17 -17 -18 -19 -19 -20 -21 -21 -21 -22 -23 -24 -24 -24 -24 -24 -24 -24 -24 -24 -24
-9 -10 -10 -10 -10 -9 -9 -10 -11 -11 -12 -12 -12 -12 -13 -13 -13 -13 -14 -15 -15 -15 -15 -16 -16 -16 -16 -17 -17 -18 -19 -20 -20 -21 -21 -22 -22 -23 -24 -25 -25 -25 -25 -25 -24 -24 -24 -24 -24
-10 -10 -10 -11 -10 -10 -10 -10 -11 -12 -12 -12 -12 -12 -13 -13 -13 -13 -14 -15 -16 -16 -16 -16 -16 -16 -17 -17 -18 -19 -20 -20 -21 -21 -22 -22 -23 -24 -25 -25 -25 -25 -25 -25 -25 -25 -25 -25 -25
-10 -11 -11 -11 -11 -11 -11 -11 -12 -12 -12 -12 -13 -13 -13 -13 -13 -14 -15 -15 -16 -16 -16 -16 -16 -16 -17 -18 -19 -19 -20 -21 -21 -22 -22 -23 -25 -25 -25 -26 -26 -25 -26 -25 -25 -25 -25 -26 -27
Height
5901 5900 5901 5902 5906 5902 5902 5901 5894 5894 5891 5889 5887 5884 5882 5879 5879 5879 5871 5869 5866 5863 5859 5857 5853 5850 5848 5846 5845 5844 5842 5840 5837 5835 5831 5828 5826 5822 5819 5817 5814 5813 5810 5807 5805 5801 5800 5797 5796
5901 5900 5902 5903 5904 5901 5901 5901 5898 5899 5896 5892 5890 5887 5883 5880 5878 5874 5871 5867 5863 5860 5856 5853 5850 5848 5846 5844 5843 5842 5840 5838 5835 5832 5829 5826 5823 5820 5817 5813 5810 5808 5805 5801 5797 5795 5793 5791 5788
5902 5902 5903 5903 5903 5903 5903 5900 5900 5900 5896 5893 5890 5888 5885 5880 5876 5873 5869 5864 5860 5857 5854 5852 5849 5846 5844 5842 5841 5839 5838 5835 5832 5829 5826 5822 5819 5815 5811 5807 5804 5802 5799 5795 5792 5789 5785 5783 5781
5901 5904 5904 5905 5905 5904 5902 5900 5899 5898 5896 5893 5890 5888 5886 5880 5875 5872 5867 5862 5858 5854 5852 5849 5847 5844 5843 5841 5839 5837 5835 5831 5828 5823 5819 5815 5812 5808 5804 5800 5796 5793 5788 5786 5782 5780 5776 5774 5771
5902 5903 5906 5906 5907 5903 5901 5900 5899 5897 5894 5893 5891 5887 5884 5878 5874 5869 5865 5860 5856 5853 5850 5848 5845 5843 5841 5839 5836 5834 5830 5826 5821 5817 5813 5808 5804 5800 5795 5791 5786 5782 5776 5772 5769 5768 5764 5763 5760
5902 5903 5906 5906 5905 5901 5900 5898 5897 5896 5895 5894 5890 5886 5882 5876 5872 5867 5863 5858 5854 5851 5848 5845 5843 5840 5837 5835 5833 5830 5825 5820 5815 5809 5804 5800 5796 5792 5787 5781 5774 5770 5764 5758 5754 5750 5749 5746 5744
5904 5904 5905 5905 5903 5900 5899 5898 5897 5896 5894 5893 5889 5885 5881 5876 5870 5865 5860 5856 5852 5849 5847 5844 5841 5838 5835 5832 5830 5825 5821 5816 5809 5804 5798 5792 5786 5781 5775 5770 5762 5755 5748 5741 5736 5732 5730 5729 5728
5906 5906 5906 5906 5901 5899 5899 5897 5896 5896 5893 5891 5888 5883 5877 5872 5867 5862 5859 5855 5851 5848 5846 5843 5839 5836 5832 5828 5825 5821 5815 5809 5802 5797 5790 5783 5778 5770 5760 5754 5746 5739 5730 5723 5719 5716 5714 5713 5712
5907 5907 5907 5905 5901 5900 5899 5897 5897 5894 5892 5891 5886 5879 5872 5868 5864 5860 5857 5854 5850 5847 5844 5840 5837 5831 5827 5822 5819 5814 5808 5802 5796 5791 5785 5777 5768 5759 5750 5739 5729 5719 5713 5708 5704 5700 5696 5693 5691
5907 5906 5905 5903 5901 5900 5898 5897 5894 5891 5889 5886 5881 5877 5874 5870 5864 5859 5855 5851 5847 5844 5840 5837 5832 5827 5822 5817 5813 5808 5800 5793 5787 5782 5775 5767 5759 5748 5737 5724 5714 5705 5697 5689 5684 5681 5678 5674 5670
5908 5907 5906 5903 5901 5899 5896 5895 5892 5890 5889 5885 5881 5877 5874 5869 5863 5859 5855 5851 5847 5843 5840 5834 5828 5823 5818 5812 5806 5800 5792 5786 5780 5772 5764 5754 5744 5733 5722 5711 5699 5689 5680 5674 5670 5666 5662 5656 5651
5907 5907 5906 5903 5902 5899 5897 5894 5891 5889 5886 5882 5878 5874 5870 5864 5859 5856 5852 5848 5844 5840 5836 5830 5823 5817 5811 5805 5800 5793 5786 5778 5771 5762 5753 5742 5731 5719 5707 5695 5685 5674 5667 5662 5658 5652 5644 5635 5627
5907 5907 5905 5902 5900 5897 5896 5893 5890 5886 5882 5877 5873 5868 5864 5860 5857 5852 5848 5845 5841 5836 5831 5824 5817 5811 5805 5799 5792 5785 5778 5769 5760 5751 5741 5730 5718 5705 5693 5681 5671 5662 5656 5651 5646 5639 5630 5620 5613
5907 5906 5903 5900 5898 5897 5893 5890 5887 5882 5877 5872 5867 5863 5860 5857 5854 5851 5846 5842 5836 5830 5825 5818 5812 5804 5797 5791 5785 5776 5768 5759 5749 5739 5729 5717 5704 5690 5679 5668 5658 5650 5645 5640 5634 5627 5621 5613 5607
5903 5903 5901 5898 5896 5894 5892 5888 5885 5879 5873 5868 5865 5861 5858 5855 5852 5847 5841 5836 5831 5826 5820 5812 5804 5797 5790 5783 5776 5767 5758 5749 5739 5727 5717 5703 5690 5677 5665 5654 5645 5637 5633 5629 5623 5617 5612 5606 5600
5900 5900 5898 5896 5893 5891 5888 5885 5881 5877 5872 5868 5865 5860 5855 5852 5848 5843 5836 5832 5827 5820 5813 5805 5798 5790 5781 5773 5766 5758 5749 5738 5727 5716 5703 5689 5676 5664 5652 5642 5633 5626 5620 5617 5612 5607 5601 5594 5589
5897 5896 5895 5893 5891 5888 5885 5882 5878 5875 5871 5866 5862 5856 5852 5850 5844 5839 5832 5827 5821 5814 5806 5798 5790 5781 5773 5765 5756 5747 5739 5727 5716 5704 5691 5679 5665 5652 5641 5632 5623 5617 5611 5605 5600 5594 5589 5584 5577
5894 5894 5893 5891 5889 5885 5881 5878 5875 5870 5866 5862 5858 5854 5849 5844 5838 5832 5826 5820 5815 5808 5800 5792 5783 5774 5765 5755 5747 5738 5727 5715 5704 5693 5680 5668 5657 5645 5633 5621 5613 5606 5602 5595 5590 5584 5577 5573 5567
5890 5890 5890 5887 5883 5880 5876 5872 5869 5865 5862 5859 5855 5851 5845 5840 5835 5829 5822 5816 5810 5803 5793 5785 5777 5767 5758 5749 5741 5730 5719 5708 5696 5683 5670 5658 5645 5632 5621 5610 5602 5595 5590 5585 5580 5574 5567 5560 5555
5887 5885 5884 5881 5877 5874 5870 5866 5862 5861 5859 5855 5853 5849 5841 5836 5830 5824 5816 5809 5804 5795 5787 5778 5768 5759 5751 5743 5732 5721 5709 5698 5685 5672 5658 5645 5632 5621 5611 5601 5592 5586 5579 5574 5569 5563 5557 5548 5543
5883 5881 5878 5875 5870 5866 5864 5862 5861 5859 5855 5852 5849 5843 5837 5831 5825 5818 5810 5804 5796 5788 5780 5770 5761 5752 5744 5734 5722 5710 5698 5685 5673 5660 5649 5638 5626 5613 5601 5591 5582 5576 5569 5564 5559 5553 5547 5539 5530
5878 5876 5873 5870 5868 5865 5864 5860 5860 5856 5851 5847 5844 5838 5833 5827 5820 5812 5805 5797 5789 5781 5772 5763 5754 5745 5735 5724 5713 5702 5692 5679 5666 5652 5640 5627 5615 5603 5591 5581 5573 5566 5560 5554 5548 5543 5536 5529 5521
5874 5872 5869 5867 5865 5863 5860 5855 5855 5849 5844 5841 5837 5833 5827 5821 5814 5806 5797 5789 5782 5774 5765 5756 5747 5737 5726 5715 5704 5694 5681 5667 5654 5641 5627 5615 5604 5593 5582 5573 5564 5558 5551 5545 5539 5533 5526 5519 5511
5869 5867 5864 5862 5861 5859 5855 5850 5848 5843 5839 5835 5831 5827 5820 5814 5807 5799 5791 5783 5776 5767 5757 5748 5738 5728 5717 5707 5696 5683 5671 5658 5644 5632 5620 5608 5597 5585 5575 5565 5557 5550 5543 5536 5530 5523 5516 5508 5500
5865 5863 5862 5860 5857 5854 5850 5844 5842 5838 5834 5829 5825 5820 5814 5808 5800 5792 5785 5777 5769 5759 5750 5741 5731 5720 5710 5699 5686 5674 5662 5649 5637 5624 5612 5600 5588 5576 5567 5558 5549 5541 5534 5527 5520 5512 5504 5496 5489
5860 5859 5857 5853 5851 5849 5845 5841 5837 5831 5826 5823 5819 5814 5808 5802 5794 5787 5779 5771 5763 5753 5743 5734 5723 5713 5702 5690 5678 5666 5653 5639 5627 5614 5601 5590 5578 5568 5558 5549 5540 5532 5525 5517 5509 5500 5492 5484 5477
5855 5854 5852 5849 5846 5842 5839 5836 5833 5826 5823 5819 5814 5809 5803 5797 5789 5781 5773 5766 5757 5747 5737 5727 5717 5705 5693 5681 5670 5657 5643 5630 5617 5604 5591 5580 5569 5559 5549 5540 5532 5523 5515 5507 5498 5490 5481 5473 5465
5849 5848 5847 5843 5839 5836 5833 5830 5827 5823 5819 5814 5809 5803 5797 5790 5782 5774 5767 5759 5749 5739 5730 5719 5707 5696 5685 5673 5660 5646 5633 5620 5608 5596 5583 5572 5561 5550 5541 5532 5523 5514 5506 5497 5487 5477 5468 5460 5452
5844 5842 5840 5837 5835 5829 5826 5823 5820 5816 5813 5808 5802 5796 5790 5783 5776 5768 5761 5752 5741 5731 5720 5709 5699 5689 5676 5663 5649 5635 5623 5612 5601 5589 5576 5563 5552 5543 5534 5525 5516 5506 5497 5486 5475 5465 5455 5446 5437
5836 5835 5833 5831 5829 5824 5820 5819 5812 5809 5806 5800 5795 5789 5783 5777 5769 5762 5753 5742 5733 5723 5712 5702 5692 5680 5667 5654 5640 5628 5617 5605 5593 5581 5568 5556 5545 5536 5526 5517 5508 5497 5486 5475 5462 5450 5440 5430 5421
Wind_Speed
14 12 12 17 17 24 24 28 36 37 38 38 38 37 34 33 33 33 31 26 24 23 22 22 22 22 21 18 17 18 18 16 17 18 20 21 23 24 26 26 26 26 27 30 31 31 33 36 36
11 8 12 14 19 24 24 26 30 33 36 36 36 36 36 36 34 33 30 29 26 25 24 24 23 23 22 21 21 21 19 20 21 24 26 28 30 32 32 33 33 33 33 35 34 35 37 38 38
11 8 8 10 15 18 20 24 26 30 34 36 36 35 35 34 32 31 32 30 28 26 25 25 25 25 24 22 22 23 24 25 28 30 32 34 36 37 39 40 41 42 42 42 41 43 42 42 42
8 9 12 11 16 19 21 24 26 29 33 35 37 35 33 33 34 34 32 31 30 29 28 27 26 25 23 23 25 26 27 29 31 33 36 38 41 43 46 47 49 48 49 49 49 50 51 50 48
8 8 9 14 16 19 22 23 26 30 33 36 34 33 35 35 36 34 32 31 31 29 29 26 23 23 23 24 26 27 28 31 33 37 40 43 45 48 49 51 52 52 53 54 56 56 56 55 58
6 13 15 15 16 19 22 24 26 28 31 32 33 34 35 36 35 34 32 31 30 27 25 24 24 25 26 26 27 29 33 36 39 42 46 48 49 48 47 49 49 50 55 59 61 63 62 61 61
6 13 16 17 17 20 22 23 24 27 29 31 32 33 35 34 34 33 31 29 26 24 23 24 24 26 28 30 31 34 36 38 41 43 46 47 48 54 52 54 54 57 60 62 66 65 63 62 63
6 11 13 13 16 19 21 23 24 25 28 29 30 32 34 36 35 31 28 25 24 24 24 26 28 30 32 34 36 37 38 41 43 44 47 51 55 59 62 62 65 67 69 68 67 66 64 63 62
6 7 8 11 15 17 19 21 22 25 26 27 30 31 32 32 31 30 27 25 25 26 27 30 32 34 36 38 38 41 43 45 46 49 51 53 58 58 63 67 70 67 67 66 65 64 65 67 67
5 8 10 13 15 18 19 21 24 27 30 31 32 32 29 27 26 25 25 25 27 29 31 34 35 37 38 40 42 43 46 47 49 51 54 55 61 63 65 70 72 72 69 66 58 53 51 54 58
5 7 10 11 14 16 18 21 24 27 29 31 30 29 26 24 23 23 22 23 25 28 31 34 37 40 41 43 44 46 47 49 52 54 57 60 63 65 68 71 68 67 63 51 47 50 53 59 63
8 8 11 12 14 16 15 21 24 26 29 32 33 31 28 25 25 24 23 24 28 30 33 36 39 42 45 45 44 45 48 50 56 59 60 60 64 67 69 67 68 62 50 46 49 55 61 60 59
9 9 11 14 15 16 17 21 24 28 30 34 34 33 32 29 27 26 25 27 29 31 35 39 42 45 46 45 45 47 51 53 56 61 61 65 68 68 69 67 62 54 44 43 46 52 43 40 37
9 9 12 15 16 17 19 21 23 27 31 34 35 34 31 28 26 25 26 29 31 35 39 42 46 47 48 45 45 48 52 58 61 64 66 71 69 70 68 67 57 49 40 41 46 38 35 30 27
8 9 12 16 17 18 19 21 24 28 33 33 31 30 28 26 25 27 29 30 33 37 41 45 48 50 51 47 48 52 56 60 64 68 71 73 71 70 68 61 55 45 39 42 40 39 41 43 36
10 11 13 16 19 19 21 24 28 30 31 30 29 29 27 25 27 28 30 32 35 40 45 48 50 52 51 48 51 55 58 64 69 73 75 75 73 71 66 59 54 42 39 41 38 39 43 45 45
12 12 15 18 20 20 22 25 30 32 30 26 27 27 26 24 25 28 31 34 38 42 47 51 52 51 51 51 53 57 62 67 72 74 76 75 75 73 67 60 52 44 40 39 39 38 37 35 35
15 15 17 18 19 20 23 26 31 33 29 27 24 23 26 26 30 33 36 38 41 45 48 52 52 51 52 53 55 59 65 69 72 74 77 74 73 71 65 59 51 42 39 38 39 42 42 40 38
18 18 20 19 20 22 27 29 34 35 30 25 19 22 25 29 33 35 38 40 44 46 51 54 53 53 54 53 57 61 68 71 73 76 77 73 73 67 63 57 49 43 41 40 41 43 41 42 41
19 22 21 21 22 25 29 33 36 35 29 23 19 22 27 31 35 37 40 43 46 49 54 55 54 56 54 55 59 65 69 72 76 79 76 75 72 66 61 55 48 42 41 41 41 42 42 43 43
21 21 21 22 25 28 32 34 35 34 28 22 21 23 27 34 36 38 42 46 49 52 56 56 56 56 55 59 63 67 70 73 77 76 75 72 68 64 59 55 46 41 39 39 40 40 41 41 44
21 21 21 22 25 28 31 35 34 32 27 24 22 24 29 34 36 40 45 49 52 56 57 56 56 56 58 62 65 68 71 76 78 74 73 70 67 63 58 51 45 42 40 39 40 39 40 40 41
21 21 22 23 26 29 31 36 34 32 29 27 26 27 32 36 39 43 48 52 53 56 57 56 55 58 61 65 67 69 73 76 75 73 70 69 66 62 56 49 44 41 40 40 40 41 41 41 41
21 22 24 26 28 30 31 37 36 33 30 28 29 31 34 38 41 45 50 53 55 57 56 55 57 60 64 67 69 71 74 74 72 71 69 67 65 61 55 47 42 42 42 42 42 43 44 43 42
21 22 24 27 28 30 32 37 34 32 29 30 32 34 36 39 43 48 52 54 56 55 55 55 59 63 66 68 70 73 75 74 71 68 68 66 63 57 51 46 43 43 45 45 46 48 47 46 44
23 24 25 27 29 31 32 35 33 32 33 32 34 36 37 40 45 50 53 54 54 53 54 56 60 65 68 69 72 74 73 72 69 67 68 66 63 58 50 47 46 46 47 48 49 50 49 48 47
24 23 24 27 29 33 34 32 31 31 32 33 35 35 37 42 47 51 53 53 51 51 54 58 62 66 68 71 74 74 73 70 68 68 67 65 61 56 51 48 49 48 46 48 51 53 52 51 50
27 25 25 26 31 34 37 36 31 32 32 34 34 36 39 44 48 51 52 49 49 52 55 60 64 66 70 74 73 73 72 69 68 68 66 64 60 54 51 51 49 48 49 52 56 57 56 54 53
28 26 26 28 30 34 38 39 35 35 31 33 34 39 42 46 48 50 47 47 50 54 58 62 65 68 72 75 73 73 71 69 69 68 65 61 57 53 52 50 50 51 54 57 58 58 59 59 58
28 25 26 29 30 35 38 39 36 34 33 34 37 40 44 46 49 47 45 48 53 56 60 63 67 71 74 73 73 73 70 69 69 66 62 57 52 52 51 51 53 56 58 59 61 63 64 62 55
Wind_Direction
146 122 85 78 62 55 42 27 24 12 12 9 5 2 358 354 356 351 347 346 346 348 348 344 343 339 325 316 314 315 312 305 309 309 301 301 305 304 305 305 305 298 295 294 292 292 295 292 281
144 130 106 76 62 54 36 27 22 8 6 7 2 357 353 350 354 347 343 347 350 351 348 347 342 336 328 318 319 317 311 300 294 298 300 302 304 303 302 301 298 296 295 291 283 284 286 286 283
159 136 96 74 64 51 40 30 18 1 358 1 359 353 349 345 348 344 344 348 350 350 348 346 343 337 332 321 318 317 314 309 303 305 305 306 304 302 301 298 295 294 291 287 285 280 277 276 276
188 140 98 72 51 43 36 26 13 3 359 358 353 344 344 346 347 346 347 347 349 350 347 347 344 338 334 327 322 320 319 314 310 306 305 304 303 301 300 299 297 294 290 286 283 280 276 273 269
186 111 73 52 42 35 28 21 10 357 355 347 344 341 342 345 345 346 346 349 349 348 348 347 341 339 337 329 322 319 315 308 306 305 304 302 302 300 298 298 297 295 291 288 285 279 274 271 271
151 80 57 41 29 26 20 12 4 351 346 343 341 343 342 342 344 347 346 349 347 347 345 343 342 341 333 326 321 319 314 314 312 308 305 305 304 306 303 302 296 294 290 285 283 280 277 271 268
104 45 34 24 21 21 12 1 351 346 342 342 342 342 340 342 347 345 347 346 346 343 343 342 338 330 324 320 320 318 316 312 307 307 310 311 312 309 307 303 299 294 287 282 282 282 277 273 270
50 40 29 5 16 10 4 352 346 344 345 341 340 342 339 347 346 344 343 344 341 339 340 335 329 325 322 320 318 317 314 310 312 316 316 315 312 309 305 300 295 291 288 289 289 289 286 281 276
54 13 3 11 10 359 356 344 344 344 342 336 344 343 346 348 342 339 339 338 336 335 336 330 327 324 322 320 320 318 315 315 314 314 314 311 314 308 303 301 301 300 298 296 293 288 284 279 276
355 1 349 4 359 350 343 342 345 342 339 340 345 342 344 344 340 334 334 337 337 335 332 329 325 321 321 321 319 317 316 314 316 315 312 308 309 310 307 303 304 304 303 299 296 294 292 285 277
297 323 333 349 343 339 338 340 342 337 331 338 344 342 341 341 333 332 336 335 330 328 327 323 320 321 319 317 317 317 317 317 317 318 319 317 316 313 308 309 309 309 304 300 300 303 299 292 283
299 311 325 335 335 331 337 338 335 331 333 337 340 339 337 339 338 335 332 329 328 328 325 321 319 318 317 315 317 319 320 319 321 320 323 323 321 317 313 314 314 309 304 298 299 303 300 295 283
290 307 322 327 333 334 336 336 333 335 338 341 339 337 337 337 334 330 327 327 324 323 323 319 319 318 316 316 319 320 324 324 326 328 329 326 325 320 318 317 315 310 300 301 306 308 316 317 296
281 308 328 329 332 333 332 329 338 342 345 344 339 333 334 331 326 323 324 322 324 324 322 321 319 318 317 315 318 324 329 330 332 333 330 326 326 324 322 319 315 310 300 300 308 309 314 316 315
297 320 324 318 320 321 324 330 341 346 347 342 334 330 326 323 323 322 321 322 322 322 322 319 319 319 315 314 318 326 330 332 333 333 331 328 326 325 323 320 315 309 300 302 304 299 299 305 308
304 316 316 311 309 316 321 326 333 344 344 335 328 324 319 321 320 319 318 320 323 323 321 321 320 319 318 315 318 323 328 331 334 333 332 330 327 325 323 321 317 309 299 303 308 296 296 291 292
300 312 306 301 302 311 318 323 329 338 342 332 328 319 316 317 317 315 316 323 324 322 322 323 321 319 320 319 320 325 328 333 336 334 332 330 327 326 325 322 318 309 299 304 309 319 316 315 307
293 299 292 291 300 311 319 323 326 336 341 331 327 316 315 319 322 318 319 322 322 323 323 322 321 322 323 324 325 327 331 334 335 333 330 327 327 327 325 321 317 308 304 306 310 315 317 315 320
289 290 288 296 307 319 322 324 331 338 338 329 324 316 314 320 317 317 318 321 322 324 325 323 323 325 326 325 326 328 332 333 334 332 328 326 327 327 324 321 316 307 303 306 308 311 315 318 321
286 288 295 305 314 319 322 326 330 333 337 332 320 313 311 314 313 317 319 321 323 327 324 323 326 327 325 324 328 329 331 334 335 331 328 328 329 327 325 321 317 311 306 309 309 311 316 321 321
277 283 296 307 317 321 323 322 327 330 332 325 317 315 312 310 313 317 319 321 324 326 323 326 327 326 325 327 328 330 333 335 333 330 328 328 327 327 326 322 318 313 312 312 312 312 316 320 322
278 289 300 310 312 313 316 315 328 329 329 323 319 315 311 312 317 319 320 322 326 324 325 327 327 326 327 327 329 329 332 333 331 328 328 328 328 329 327 325 320 317 315 315 314 312 316 320 320
282 290 297 303 306 308 314 314 326 329 325 322 318 316 314 317 321 320 321 323 324 323 325 325 326 328 329 329 329 331 334 333 330 328 329 329 329 329 327 327 322 319 317 316 313 313 314 317 318
280 290 295 299 303 310 311 314 330 328 322 318 316 318 319 320 321 320 319 322 323 323 323 324 327 329 330 331 331 333 333 331 328 328 330 329 329 328 327 327 324 320 318 316 313 313 313 315 315
276 282 288 294 303 311 314 315 326 320 316 315 319 320 319 320 320 317 319 322 322 321 322 325 328 329 331 332 332 333 331 328 328 329 329 328 329 326 324 324 322 321 319 315 315 315 315 315 315
272 279 289 298 305 309 314 319 323 319 314 317 318 316 318 318 315 315 318 320 319 319 323 326 328 331 332 332 332 331 328 327 328 329 328 328 328 325 324 323 323 321 319 317 317 316 316 317 316
272 282 290 299 302 308 313 318 319 310 310 311 311 314 315 313 314 317 317 318 317 321 326 327 330 332 332 332 331 329 327 328 329 328 328 327 327 326 325 325 322 321 319 318 318 318 319 318 317
273 282 292 301 305 311 314 315 314 306 309 307 310 312 312 314 315 316 316 317 320 325 327 330 332 332 331 331 329 327 328 329 328 327 328 328 327 327 326 325 324 322 320 320 320 320 319 317 315
273 284 294 300 307 309 314 315 313 309 309 307 310 312 314 314 315 314 318 320 325 328 330 330 331 330 330 329 328 328 329 329 327 328 328 328 327 327 327 326 324 323 322 322 322 320 318 315 313
273 284 292 300 305 308 312 316 310 311 309 309 312 312 312 314 314 317 320 326 328 330 328 329 330 329 329 329 328 329 329 328 328 329 329 329 328 328 329 327 326 325 325 325 322 319 316 314 313